Year,Month,Day,Hour,Minute,Value (Times are PST for windspeed in km/hr)
2010,04,09,00,00,4.20
2010,04,09,00,01,5.90
2010,04,09,00,02,7.20
2010,04,09,00,03,6.40
2010,04,09,00,04,6.30
2010,04,09,00,05,4.30
2010,04,09,00,06,5.70
2010,04,09,00,07,2.00
2010,04,09,00,08,5.10
2010,04,09,00,09,3.90
2010,04,09,00,10,2.90
2010,04,09,00,11,5.40
2010,04,09,00,12,5.00
2010,04,09,00,13,6.60
2010,04,09,00,14,7.40
2010,04,09,00,15,6.00
2010,04,09,00,16,2.80
2010,04,09,00,17,6.80
2010,04,09,00,18,4.60
2010,04,09,00,19,5.50
2010,04,09,00,20,5.60
2010,04,09,00,21,4.90
2010,04,09,00,22,2.50
2010,04,09,00,23,4.40
2010,04,09,00,24,3.90
2010,04,09,00,25,3.10
2010,04,09,00,26,2.60
2010,04,09,00,27,1.10
2010,04,09,00,28,1.10
2010,04,09,00,29,6.40
2010,04,09,00,30,3.00
2010,04,09,00,31,0.30
2010,04,09,00,32,1.10
2010,04,09,00,33,0.70
2010,04,09,00,34,2.00
2010,04,09,00,35,1.50
2010,04,09,00,36,2.80
2010,04,09,00,37,1.60
2010,04,09,00,38,3.00
2010,04,09,00,39,3.80
2010,04,09,00,40,3.10
2010,04,09,00,41,0.40
2010,04,09,00,42,1.80
2010,04,09,00,43,0.70
2010,04,09,00,44,0.60
2010,04,09,00,45,0.00
2010,04,09,00,46,1.50
2010,04,09,00,47,4.10
2010,04,09,00,48,1.60
2010,04,09,00,49,4.90
2010,04,09,00,50,8.10
2010,04,09,00,51,8.00
2010,04,09,00,52,9.10
2010,04,09,00,53,7.80
2010,04,09,00,54,4.20
2010,04,09,00,55,1.90
2010,04,09,00,56,7.50
2010,04,09,00,57,2.30
2010,04,09,00,58,5.90
2010,04,09,00,59,5.00
2010,04,09,01,00,5.00
2010,04,09,01,01,5.20
2010,04,09,01,02,7.80
2010,04,09,01,03,7.80
2010,04,09,01,04,7.10
2010,04,09,01,05,4.80
2010,04,09,01,06,4.80
2010,04,09,01,07,4.40
2010,04,09,01,08,4.60
2010,04,09,01,09,2.60
2010,04,09,01,10,3.50
2010,04,09,01,11,1.90
2010,04,09,01,12,3.50
2010,04,09,01,13,1.40
2010,04,09,01,14,2.70
2010,04,09,01,15,2.10
2010,04,09,01,16,4.10
2010,04,09,01,17,5.20
2010,04,09,01,18,5.20
2010,04,09,01,19,8.10
2010,04,09,01,20,6.00
2010,04,09,01,21,6.50
2010,04,09,01,22,5.20
2010,04,09,01,23,4.10
2010,04,09,01,24,3.20
2010,04,09,01,25,2.00
2010,04,09,01,26,3.90
2010,04,09,01,27,3.80
2010,04,09,01,28,2.00
2010,04,09,01,29,3.10
2010,04,09,01,30,4.40
2010,04,09,01,31,3.00
2010,04,09,01,32,1.80
2010,04,09,01,33,2.70
2010,04,09,01,34,3.00
2010,04,09,01,35,0.30
2010,04,09,01,36,0.00
2010,04,09,01,37,0.40
2010,04,09,01,38,0.40
2010,04,09,01,39,3.60
2010,04,09,01,40,3.90
2010,04,09,01,41,0.00
2010,04,09,01,42,1.00
2010,04,09,01,43,0.30
2010,04,09,01,44,3.50
2010,04,09,01,45,0.70
2010,04,09,01,46,5.00
2010,04,09,01,47,4.20
2010,04,09,01,48,8.30
2010,04,09,01,49,8.40
2010,04,09,01,50,3.80
2010,04,09,01,51,0.40
2010,04,09,01,52,0.10
2010,04,09,01,53,2.90
2010,04,09,01,54,5.90
2010,04,09,01,55,2.70
2010,04,09,01,56,0.60
2010,04,09,01,57,0.10
2010,04,09,01,58,3.10
2010,04,09,01,59,5.70
2010,04,09,02,00,2.80
2010,04,09,02,01,4.50
2010,04,09,02,02,3.90
2010,04,09,02,03,3.10
2010,04,09,02,04,1.90
2010,04,09,02,05,7.40
2010,04,09,02,06,7.30
2010,04,09,02,07,5.20
2010,04,09,02,08,7.40
2010,04,09,02,09,6.10
2010,04,09,02,10,9.30
2010,04,09,02,11,16.70
2010,04,09,02,12,8.50
2010,04,09,02,13,3.70
2010,04,09,02,14,8.10
2010,04,09,02,15,6.00
2010,04,09,02,16,4.60
2010,04,09,02,17,3.00
2010,04,09,02,18,4.70
2010,04,09,02,19,8.40
2010,04,09,02,20,10.50
2010,04,09,02,21,6.30
2010,04,09,02,22,6.40
2010,04,09,02,23,6.50
2010,04,09,02,24,4.70
2010,04,09,02,25,4.60
2010,04,09,02,26,8.30
2010,04,09,02,27,6.10
2010,04,09,02,28,5.70
2010,04,09,02,29,4.30
2010,04,09,02,30,3.20
2010,04,09,02,31,3.30
2010,04,09,02,32,6.40
2010,04,09,02,33,4.70
2010,04,09,02,34,1.50
2010,04,09,02,35,1.00
2010,04,09,02,36,5.90
2010,04,09,02,37,1.90
2010,04,09,02,38,1.10
2010,04,09,02,39,2.30
2010,04,09,02,40,1.80
2010,04,09,02,41,2.20
2010,04,09,02,42,0.80
2010,04,09,02,43,1.50
2010,04,09,02,44,5.70
2010,04,09,02,45,3.60
2010,04,09,02,46,2.90
2010,04,09,02,47,5.90
2010,04,09,02,48,5.70
2010,04,09,02,49,1.80
2010,04,09,02,50,2.00
2010,04,09,02,51,2.80
2010,04,09,02,52,0.80
2010,04,09,02,53,4.30
2010,04,09,02,54,7.20
2010,04,09,02,55,3.60
2010,04,09,02,56,2.10
2010,04,09,02,57,1.10
2010,04,09,02,58,2.30
2010,04,09,02,59,3.90
2010,04,09,03,00,3.60
2010,04,09,03,01,2.80
2010,04,09,03,02,3.00
2010,04,09,03,06,2.20
2010,04,09,03,07,3.50
2010,04,09,03,08,2.40
2010,04,09,03,09,0.00
2010,04,09,03,10,0.40
2010,04,09,03,11,1.70
2010,04,09,03,12,1.80
2010,04,09,03,13,0.40
2010,04,09,03,14,0.00
2010,04,09,03,15,0.00
2010,04,09,03,16,0.00
2010,04,09,03,17,0.20
2010,04,09,03,18,0.00
2010,04,09,03,19,0.00
2010,04,09,03,20,0.00
2010,04,09,03,21,0.00
2010,04,09,03,22,0.10
2010,04,09,03,23,0.00
2010,04,09,03,24,1.10
2010,04,09,03,25,0.20
2010,04,09,03,26,0.10
2010,04,09,03,27,0.00
2010,04,09,03,28,0.20
2010,04,09,03,29,0.20
2010,04,09,03,30,0.00
2010,04,09,03,31,0.00
2010,04,09,03,32,0.00
2010,04,09,03,33,0.20
2010,04,09,03,34,0.30
2010,04,09,03,35,0.20
2010,04,09,03,36,0.00
2010,04,09,03,37,0.10
2010,04,09,03,38,0.00
2010,04,09,03,39,0.00
2010,04,09,03,40,0.10
2010,04,09,03,41,0.10
2010,04,09,03,42,0.00
2010,04,09,03,43,0.00
2010,04,09,03,44,0.00
2010,04,09,03,45,0.00
2010,04,09,03,46,0.10
2010,04,09,03,47,0.00
2010,04,09,03,48,0.00
2010,04,09,03,49,0.00
2010,04,09,03,50,0.00
2010,04,09,03,51,0.00
2010,04,09,03,52,0.00
2010,04,09,03,53,0.00
2010,04,09,03,54,0.00
2010,04,09,03,55,0.40
2010,04,09,03,56,0.00
2010,04,09,03,57,0.00
2010,04,09,03,58,0.00
2010,04,09,03,59,0.00
2010,04,09,04,00,0.00
2010,04,09,04,01,0.00
2010,04,09,04,02,0.00
2010,04,09,04,03,0.00
2010,04,09,04,04,0.00
2010,04,09,04,05,0.00
2010,04,09,04,06,0.10
2010,04,09,04,07,0.20
2010,04,09,04,08,0.00
2010,04,09,04,09,0.00
2010,04,09,04,10,0.10
2010,04,09,04,11,0.60
2010,04,09,04,12,0.40
2010,04,09,04,13,0.20
2010,04,09,04,14,0.00
2010,04,09,04,15,0.00
2010,04,09,04,16,0.00
2010,04,09,04,17,0.00
2010,04,09,04,18,0.00
2010,04,09,04,19,0.00
2010,04,09,04,20,0.00
2010,04,09,04,21,0.00
2010,04,09,04,22,0.00
2010,04,09,04,23,0.00
2010,04,09,04,24,0.10
2010,04,09,04,25,0.00
2010,04,09,04,26,0.00
2010,04,09,04,27,0.00
2010,04,09,04,28,0.00
2010,04,09,04,29,0.00
2010,04,09,04,30,0.00
2010,04,09,04,31,0.00
2010,04,09,04,32,0.00
2010,04,09,04,33,0.00
2010,04,09,04,34,0.10
2010,04,09,04,35,0.00
2010,04,09,04,36,0.00
2010,04,09,04,37,0.20
2010,04,09,04,38,1.80
2010,04,09,04,39,4.10
2010,04,09,04,40,6.40
2010,04,09,04,41,6.60
2010,04,09,04,42,4.10
2010,04,09,04,43,4.80
2010,04,09,04,44,4.30
2010,04,09,04,45,0.70
2010,04,09,04,46,3.50
2010,04,09,04,47,3.30
2010,04,09,04,48,2.90
2010,04,09,04,49,0.70
2010,04,09,04,50,1.90
2010,04,09,04,51,1.30
2010,04,09,04,52,0.40
2010,04,09,04,53,0.30
2010,04,09,04,54,0.60
2010,04,09,04,55,0.00
2010,04,09,04,56,0.20
2010,04,09,04,57,0.00
2010,04,09,04,58,0.00
2010,04,09,04,59,0.00
2010,04,09,05,00,0.00
2010,04,09,05,01,0.00
2010,04,09,05,02,0.00
2010,04,09,05,03,0.00
2010,04,09,05,04,0.00
2010,04,09,05,05,0.00
2010,04,09,05,06,0.90
2010,04,09,05,07,1.60
2010,04,09,05,08,1.00
2010,04,09,05,09,0.00
2010,04,09,05,10,0.00
2010,04,09,05,11,0.30
2010,04,09,05,12,0.00
2010,04,09,05,13,0.00
2010,04,09,05,14,0.00
2010,04,09,05,15,0.00
2010,04,09,05,16,0.00
2010,04,09,05,17,0.00
2010,04,09,05,18,0.60
2010,04,09,05,19,0.40
2010,04,09,05,20,0.10
2010,04,09,05,21,0.00
2010,04,09,05,22,0.10
2010,04,09,05,23,0.10
2010,04,09,05,24,0.20
2010,04,09,05,25,0.10
2010,04,09,05,26,0.20
2010,04,09,05,27,0.20
2010,04,09,05,28,0.20
2010,04,09,05,29,0.20
2010,04,09,05,30,0.20
2010,04,09,05,31,1.40
2010,04,09,05,32,1.20
2010,04,09,05,33,0.10
2010,04,09,05,34,0.20
2010,04,09,05,35,0.60
2010,04,09,05,36,0.20
2010,04,09,05,37,0.00
2010,04,09,05,38,0.00
2010,04,09,05,39,0.00
2010,04,09,05,40,0.00
2010,04,09,05,41,0.00
2010,04,09,05,42,0.00
2010,04,09,05,43,0.00
2010,04,09,05,44,0.00
2010,04,09,05,45,0.30
2010,04,09,05,46,0.00
2010,04,09,05,47,0.00
2010,04,09,05,48,0.00
2010,04,09,05,49,1.90
2010,04,09,05,50,0.30
2010,04,09,05,51,0.40
2010,04,09,05,52,0.00
2010,04,09,05,53,0.20
2010,04,09,05,54,0.50
2010,04,09,05,55,0.90
2010,04,09,05,56,0.00
2010,04,09,05,57,0.00
2010,04,09,05,58,0.00
2010,04,09,05,59,1.00
2010,04,09,06,00,2.20
2010,04,09,06,01,1.00
2010,04,09,06,02,0.20
2010,04,09,06,03,0.10
2010,04,09,06,04,1.20
2010,04,09,06,05,0.30
2010,04,09,06,06,1.20
2010,04,09,06,07,3.00
2010,04,09,06,08,5.00
2010,04,09,06,09,0.20
2010,04,09,06,10,1.90
2010,04,09,06,11,1.00
2010,04,09,06,12,1.20
2010,04,09,06,13,1.70
2010,04,09,06,14,0.60
2010,04,09,06,15,2.60
2010,04,09,06,16,3.00
2010,04,09,06,17,2.80
2010,04,09,06,18,3.60
2010,04,09,06,19,2.10
2010,04,09,06,20,0.60
2010,04,09,06,21,1.80
2010,04,09,06,22,1.90
2010,04,09,06,23,0.80
2010,04,09,06,24,0.30
2010,04,09,06,25,0.10
2010,04,09,06,26,0.40
2010,04,09,06,27,0.90
2010,04,09,06,28,0.60
2010,04,09,06,29,0.20
2010,04,09,06,30,1.30
2010,04,09,06,31,0.50
2010,04,09,06,32,0.70
2010,04,09,06,33,1.00
2010,04,09,06,34,0.00
2010,04,09,06,35,0.20
2010,04,09,06,36,0.00
2010,04,09,06,37,0.00
2010,04,09,06,38,0.00
2010,04,09,06,39,0.70
2010,04,09,06,40,0.60
2010,04,09,06,41,0.00
2010,04,09,06,42,1.00
2010,04,09,06,43,1.20
2010,04,09,06,44,1.00
2010,04,09,06,45,0.20
2010,04,09,06,46,0.10
2010,04,09,06,47,0.10
2010,04,09,06,48,0.10
2010,04,09,06,49,0.00
2010,04,09,06,50,0.00
2010,04,09,06,51,0.10
2010,04,09,06,52,0.00
2010,04,09,06,53,0.30
2010,04,09,06,54,0.10
2010,04,09,06,55,0.00
2010,04,09,06,56,0.00
2010,04,09,06,57,0.00
2010,04,09,06,58,0.10
2010,04,09,06,59,0.00
2010,04,09,07,00,0.00
2010,04,09,07,01,0.10
2010,04,09,07,02,0.20
2010,04,09,07,03,0.10
2010,04,09,07,04,0.10
2010,04,09,07,05,0.00
2010,04,09,07,06,0.30
2010,04,09,07,07,2.10
2010,04,09,07,08,2.50
2010,04,09,07,09,0.50
2010,04,09,07,10,0.00
2010,04,09,07,11,0.30
2010,04,09,07,12,0.60
2010,04,09,07,13,0.00
2010,04,09,07,14,0.70
2010,04,09,07,15,0.20
2010,04,09,07,16,0.00
2010,04,09,07,17,0.00
2010,04,09,07,18,0.00
2010,04,09,07,19,0.00
2010,04,09,07,20,0.00
2010,04,09,07,21,0.00
2010,04,09,07,22,0.00
2010,04,09,07,23,0.00
2010,04,09,07,24,0.00
2010,04,09,07,25,0.20
2010,04,09,07,26,0.50
2010,04,09,07,27,0.00
2010,04,09,07,28,0.00
2010,04,09,07,29,0.00
2010,04,09,07,30,0.00
2010,04,09,07,31,1.50
2010,04,09,07,32,0.60
2010,04,09,07,33,1.40
2010,04,09,07,34,2.90
2010,04,09,07,35,0.00
2010,04,09,07,36,0.00
2010,04,09,07,37,0.00
2010,04,09,07,38,0.60
2010,04,09,07,39,0.10
2010,04,09,07,40,0.00
2010,04,09,07,41,0.50
2010,04,09,07,42,0.20
2010,04,09,07,43,1.00
2010,04,09,07,44,0.60
2010,04,09,07,45,1.50
2010,04,09,07,46,2.10
2010,04,09,07,47,2.60
2010,04,09,07,48,1.50
2010,04,09,07,49,0.10
2010,04,09,07,50,0.60
2010,04,09,07,51,0.00
2010,04,09,07,52,0.00
2010,04,09,07,53,0.20
2010,04,09,07,54,0.20
2010,04,09,07,55,0.00
2010,04,09,07,56,0.00
2010,04,09,07,57,0.00
2010,04,09,07,58,0.00
2010,04,09,07,59,0.00
2010,04,09,08,00,0.00
2010,04,09,08,01,0.00
2010,04,09,08,02,0.00
2010,04,09,08,03,0.00
2010,04,09,08,04,0.00
2010,04,09,08,05,0.00
2010,04,09,08,06,0.00
2010,04,09,08,07,0.00
2010,04,09,08,08,0.00
2010,04,09,08,09,0.00
2010,04,09,08,10,1.10
2010,04,09,08,11,1.30
2010,04,09,08,12,0.00
2010,04,09,08,13,0.10
2010,04,09,08,14,0.00
2010,04,09,08,15,0.00
2010,04,09,08,16,5.60
2010,04,09,08,17,3.10
2010,04,09,08,18,1.30
2010,04,09,08,19,0.60
2010,04,09,08,20,4.20
2010,04,09,08,21,3.10
2010,04,09,08,22,0.90
2010,04,09,08,23,3.50
2010,04,09,08,24,3.20
2010,04,09,08,25,1.90
2010,04,09,08,26,1.70
2010,04,09,08,27,1.70
2010,04,09,08,28,1.90
2010,04,09,08,29,1.90
2010,04,09,08,30,3.60
2010,04,09,08,31,1.40
2010,04,09,08,32,4.10
2010,04,09,08,33,2.40
2010,04,09,08,34,7.10
2010,04,09,08,35,9.10
2010,04,09,08,36,4.70
2010,04,09,08,37,4.10
2010,04,09,08,38,4.10
2010,04,09,08,39,3.70
2010,04,09,08,40,4.50
2010,04,09,08,41,6.50
2010,04,09,08,42,6.60
2010,04,09,08,43,7.60
2010,04,09,08,44,3.90
2010,04,09,08,45,4.10
2010,04,09,08,46,3.50
2010,04,09,08,47,3.60
2010,04,09,08,48,1.20
2010,04,09,08,49,0.00
2010,04,09,08,50,1.80
2010,04,09,08,51,4.90
2010,04,09,08,52,4.60
2010,04,09,08,53,2.90
2010,04,09,08,54,6.00
2010,04,09,08,55,7.50
2010,04,09,08,56,3.40
2010,04,09,08,57,3.30
2010,04,09,08,58,7.90
2010,04,09,08,59,4.10
2010,04,09,09,00,0.20
2010,04,09,09,01,2.60
2010,04,09,09,02,0.00
2010,04,09,09,03,0.80
2010,04,09,09,04,2.90
2010,04,09,09,05,5.40
2010,04,09,09,06,3.70
2010,04,09,09,07,3.10
2010,04,09,09,08,2.70
2010,04,09,09,09,1.20
2010,04,09,09,10,3.30
2010,04,09,09,11,0.60
2010,04,09,09,12,2.70
2010,04,09,09,13,3.60
2010,04,09,09,14,7.80
2010,04,09,09,15,5.00
2010,04,09,09,16,4.70
2010,04,09,09,17,4.30
2010,04,09,09,18,2.40
2010,04,09,09,19,1.70
2010,04,09,09,20,1.50
2010,04,09,09,21,2.90
2010,04,09,09,22,3.80
2010,04,09,09,23,2.70
2010,04,09,09,24,0.20
2010,04,09,09,25,1.90
2010,04,09,09,26,3.10
2010,04,09,09,27,0.60
2010,04,09,09,28,0.70
2010,04,09,09,29,1.30
2010,04,09,09,30,3.20
2010,04,09,09,31,1.90
2010,04,09,09,32,0.60
2010,04,09,09,33,1.80
2010,04,09,09,34,2.30
2010,04,09,09,35,4.10
2010,04,09,09,36,3.10
2010,04,09,09,37,0.70
2010,04,09,09,38,1.00
2010,04,09,09,39,1.40
2010,04,09,09,40,1.40
2010,04,09,09,41,1.00
2010,04,09,09,42,1.30
2010,04,09,09,43,0.20
2010,04,09,09,44,6.10
2010,04,09,09,45,5.20
2010,04,09,09,46,5.50
2010,04,09,09,47,1.70
2010,04,09,09,48,0.90
2010,04,09,09,49,1.00
2010,04,09,09,50,1.00
2010,04,09,09,51,4.40
2010,04,09,09,52,4.50
2010,04,09,09,53,3.60
2010,04,09,09,54,2.70
2010,04,09,09,55,0.60
2010,04,09,09,56,5.70
2010,04,09,09,57,7.40
2010,04,09,09,58,2.80
2010,04,09,09,59,0.40
2010,04,09,10,00,0.10
2010,04,09,10,01,3.50
2010,04,09,10,02,4.80
2010,04,09,10,03,2.80
2010,04,09,10,04,1.70
2010,04,09,10,05,3.40
2010,04,09,10,06,5.30
2010,04,09,10,07,1.50
2010,04,09,10,08,8.50
2010,04,09,10,09,6.30
2010,04,09,10,10,2.50
2010,04,09,10,11,1.60
2010,04,09,10,12,0.70
2010,04,09,10,13,3.50
2010,04,09,10,14,4.40
2010,04,09,10,15,0.20
2010,04,09,10,16,3.10
2010,04,09,10,17,1.70
2010,04,09,10,18,1.50
2010,04,09,10,19,2.90
2010,04,09,10,20,3.20
2010,04,09,10,21,3.60
2010,04,09,10,22,2.80
2010,04,09,10,23,2.20
2010,04,09,10,24,1.50
2010,04,09,10,25,0.20
2010,04,09,10,26,4.00
2010,04,09,10,27,4.70
2010,04,09,10,28,2.40
2010,04,09,10,29,6.10
2010,04,09,10,30,2.70
2010,04,09,10,31,0.70
2010,04,09,10,32,4.80
2010,04,09,10,33,7.50
2010,04,09,10,34,7.60
2010,04,09,10,35,4.00
2010,04,09,10,36,1.80
2010,04,09,10,37,5.70
2010,04,09,10,38,8.00
2010,04,09,10,39,2.90
2010,04,09,10,40,2.70
2010,04,09,10,41,1.30
2010,04,09,10,42,7.70
2010,04,09,10,43,6.80
2010,04,09,10,44,3.00
2010,04,09,10,45,2.10
2010,04,09,10,46,3.10
2010,04,09,10,47,1.10
2010,04,09,10,48,3.90
2010,04,09,10,49,1.90
2010,04,09,10,50,1.60
2010,04,09,10,51,2.70
2010,04,09,10,52,2.90
2010,04,09,10,53,0.20
2010,04,09,10,54,1.30
2010,04,09,10,55,9.60
2010,04,09,10,56,4.80
2010,04,09,10,57,4.40
2010,04,09,10,58,6.00
2010,04,09,10,59,3.90
2010,04,09,11,00,4.60
2010,04,09,11,01,6.40
2010,04,09,11,02,2.70
2010,04,09,11,03,5.10
2010,04,09,11,04,9.30
2010,04,09,11,05,5.80
2010,04,09,11,06,7.00
2010,04,09,11,07,1.30
2010,04,09,11,08,6.00
2010,04,09,11,09,10.80
2010,04,09,11,10,6.40
2010,04,09,11,11,6.10
2010,04,09,11,12,5.90
2010,04,09,11,13,4.40
2010,04,09,11,14,4.00
2010,04,09,11,15,3.40
2010,04,09,11,16,8.30
2010,04,09,11,17,7.20
2010,04,09,11,18,6.60
2010,04,09,11,19,6.40
2010,04,09,11,20,6.20
2010,04,09,11,21,7.40
2010,04,09,11,22,6.40
2010,04,09,11,23,6.80
2010,04,09,11,24,10.80
2010,04,09,11,25,12.80
2010,04,09,11,26,9.60
2010,04,09,11,27,5.20
2010,04,09,11,28,3.90
2010,04,09,11,29,8.00
2010,04,09,11,30,9.40
2010,04,09,11,31,5.00
2010,04,09,11,32,7.30
2010,04,09,11,33,7.20
2010,04,09,11,34,8.60
2010,04,09,11,35,7.40
2010,04,09,11,36,5.00
2010,04,09,11,37,5.60
2010,04,09,11,38,7.50
2010,04,09,11,39,11.10
2010,04,09,11,40,6.10
2010,04,09,11,41,7.50
2010,04,09,11,42,9.10
2010,04,09,11,43,6.70
2010,04,09,11,44,4.90
2010,04,09,11,45,7.60
2010,04,09,11,46,4.10
2010,04,09,11,47,7.50
2010,04,09,11,48,9.80
2010,04,09,11,49,7.60
2010,04,09,11,50,13.00
2010,04,09,11,51,11.70
2010,04,09,11,52,5.80
2010,04,09,11,53,11.50
2010,04,09,11,54,8.90
2010,04,09,11,55,12.00
2010,04,09,11,56,11.80
2010,04,09,11,57,4.80
2010,04,09,11,58,2.30
2010,04,09,11,59,14.80
2010,04,09,12,00,12.90
2010,04,09,12,01,10.70
2010,04,09,12,02,7.60
2010,04,09,12,03,6.80
2010,04,09,12,04,5.80
2010,04,09,12,05,9.30
2010,04,09,12,06,11.30
2010,04,09,12,07,7.30
2010,04,09,12,08,6.80
2010,04,09,12,09,6.10
2010,04,09,12,10,10.00
2010,04,09,12,11,10.80
2010,04,09,12,12,10.50
2010,04,09,12,13,10.60
2010,04,09,12,14,10.10
2010,04,09,12,15,6.00
2010,04,09,12,16,8.30
2010,04,09,12,17,6.20
2010,04,09,12,18,10.30
2010,04,09,12,19,8.30
2010,04,09,12,20,3.70
2010,04,09,12,21,6.10
2010,04,09,12,22,4.90
2010,04,09,12,23,3.10
2010,04,09,12,24,4.80
2010,04,09,12,25,6.70
2010,04,09,12,26,6.80
2010,04,09,12,27,6.00
2010,04,09,12,28,7.40
2010,04,09,12,29,4.50
2010,04,09,12,30,11.10
2010,04,09,12,31,9.30
2010,04,09,12,32,7.00
2010,04,09,12,33,3.10
2010,04,09,12,34,11.80
2010,04,09,12,35,9.20
2010,04,09,12,36,10.10
2010,04,09,12,37,5.90
2010,04,09,12,38,3.40
2010,04,09,12,39,2.20
2010,04,09,12,40,2.90
2010,04,09,12,41,3.80
2010,04,09,12,42,5.80
2010,04,09,12,43,5.70
2010,04,09,12,44,6.00
2010,04,09,12,45,4.50
2010,04,09,12,46,3.00
2010,04,09,12,47,4.60
2010,04,09,12,48,4.60
2010,04,09,12,49,3.50
2010,04,09,12,50,1.80
2010,04,09,12,51,1.80
2010,04,09,12,52,1.50
2010,04,09,12,53,5.40
2010,04,09,12,54,2.70
2010,04,09,12,55,3.40
2010,04,09,12,56,3.10
2010,04,09,12,57,0.70
2010,04,09,12,58,4.30
2010,04,09,12,59,0.40
2010,04,09,13,00,3.10
2010,04,09,13,01,6.40
2010,04,09,13,02,6.00
2010,04,09,13,03,9.70
2010,04,09,13,04,7.00
2010,04,09,13,05,6.40
2010,04,09,13,06,9.70
2010,04,09,13,07,6.80
2010,04,09,13,08,9.50
2010,04,09,13,09,6.60
2010,04,09,13,10,1.80
2010,04,09,13,11,2.90
2010,04,09,13,12,4.70
2010,04,09,13,13,5.20
2010,04,09,13,14,7.30
2010,04,09,13,15,9.20
2010,04,09,13,16,4.80
2010,04,09,13,17,4.30
2010,04,09,13,18,9.50
2010,04,09,13,19,2.10
2010,04,09,13,20,7.50
2010,04,09,13,21,7.50
2010,04,09,13,22,4.80
2010,04,09,13,23,3.10
2010,04,09,13,24,6.60
2010,04,09,13,25,4.40
2010,04,09,13,26,7.90
2010,04,09,13,27,7.80
2010,04,09,13,28,9.60
2010,04,09,13,29,9.40
2010,04,09,13,30,8.80
2010,04,09,13,31,9.20
2010,04,09,13,32,5.50
2010,04,09,13,33,2.60
2010,04,09,13,34,1.90
2010,04,09,13,35,10.00
2010,04,09,13,36,12.00
2010,04,09,13,37,9.00
2010,04,09,13,38,9.60
2010,04,09,13,39,7.40
2010,04,09,13,40,5.10
2010,04,09,13,41,5.10
2010,04,09,13,42,5.10
2010,04,09,13,43,3.60
2010,04,09,13,44,3.50
2010,04,09,13,45,9.90
2010,04,09,13,46,7.10
2010,04,09,13,47,7.90
2010,04,09,13,48,10.00
2010,04,09,13,49,7.30
2010,04,09,13,50,8.10
2010,04,09,13,51,6.00
2010,04,09,13,52,6.80
2010,04,09,13,53,6.10
2010,04,09,13,54,3.20
2010,04,09,13,55,3.00
2010,04,09,13,56,5.40
2010,04,09,13,57,5.10
2010,04,09,13,58,6.80
2010,04,09,13,59,3.80
2010,04,09,14,00,6.10
2010,04,09,14,01,4.60
2010,04,09,14,02,5.60
2010,04,09,14,03,7.50
2010,04,09,14,04,7.20
2010,04,09,14,05,6.80
2010,04,09,14,06,1.20
2010,04,09,14,07,3.30
2010,04,09,14,08,5.30
2010,04,09,14,09,5.30
2010,04,09,14,10,4.30
2010,04,09,14,11,5.10
2010,04,09,14,12,0.30
2010,04,09,14,13,0.70
2010,04,09,14,14,3.40
2010,04,09,14,15,1.10
2010,04,09,14,16,1.00
2010,04,09,14,17,2.70
2010,04,09,14,18,6.00
2010,04,09,14,19,6.90
2010,04,09,14,20,7.90
2010,04,09,14,21,8.40
2010,04,09,14,22,7.80
2010,04,09,14,23,6.80
2010,04,09,14,24,5.30
2010,04,09,14,25,4.00
2010,04,09,14,26,3.90
2010,04,09,14,27,4.50
2010,04,09,14,28,8.50
2010,04,09,14,29,4.60
2010,04,09,14,30,2.20
2010,04,09,14,31,4.20
2010,04,09,14,32,4.90
2010,04,09,14,33,2.30
2010,04,09,14,34,3.40
2010,04,09,14,35,2.30
2010,04,09,14,36,3.60
2010,04,09,14,37,1.80
2010,04,09,14,38,0.30
2010,04,09,14,39,3.10
2010,04,09,14,40,2.40
2010,04,09,14,41,2.80
2010,04,09,14,42,4.70
2010,04,09,14,43,5.30
2010,04,09,14,44,4.60
2010,04,09,14,45,4.10
2010,04,09,14,46,8.40
2010,04,09,14,47,4.30
2010,04,09,14,48,3.00
2010,04,09,14,49,3.40
2010,04,09,14,50,3.40
2010,04,09,14,51,1.10
2010,04,09,14,52,0.90
2010,04,09,14,53,4.60
2010,04,09,14,54,1.90
2010,04,09,14,55,5.30
2010,04,09,14,56,12.80
2010,04,09,14,57,7.50
2010,04,09,14,58,6.80
2010,04,09,14,59,7.90
2010,04,09,15,00,5.10
2010,04,09,15,01,5.00
2010,04,09,15,02,6.80
2010,04,09,15,03,8.90
2010,04,09,15,04,4.00
2010,04,09,15,05,4.90
2010,04,09,15,06,10.00
2010,04,09,15,07,6.90
2010,04,09,15,08,9.30
2010,04,09,15,09,8.50
2010,04,09,15,10,11.20
2010,04,09,15,11,5.20
2010,04,09,15,12,7.20
2010,04,09,15,13,13.20
2010,04,09,15,14,9.80
2010,04,09,15,15,5.10
2010,04,09,15,16,1.90
2010,04,09,15,17,1.60
2010,04,09,15,18,7.10
2010,04,09,15,19,7.60
2010,04,09,15,20,4.70
2010,04,09,15,21,1.90
2010,04,09,15,22,5.50
2010,04,09,15,23,5.20
2010,04,09,15,24,4.90
2010,04,09,15,25,2.00
2010,04,09,15,26,2.40
2010,04,09,15,27,4.30
2010,04,09,15,28,4.40
2010,04,09,15,29,2.50
2010,04,09,15,30,3.60
2010,04,09,15,31,3.20
2010,04,09,15,32,4.70
2010,04,09,15,33,2.00
2010,04,09,15,34,2.30
2010,04,09,15,35,0.80
2010,04,09,15,36,1.30
2010,04,09,15,37,2.00
2010,04,09,15,38,3.20
2010,04,09,15,39,3.90
2010,04,09,15,40,5.60
2010,04,09,15,41,4.80
2010,04,09,15,42,3.90
2010,04,09,15,43,4.30
2010,04,09,15,44,6.40
2010,04,09,15,45,2.80
2010,04,09,15,46,4.30
2010,04,09,15,47,5.90
2010,04,09,15,48,4.20
2010,04,09,15,49,2.70
2010,04,09,15,50,2.80
2010,04,09,15,51,6.40
2010,04,09,15,52,3.10
2010,04,09,15,53,0.30
2010,04,09,15,54,3.50
2010,04,09,15,55,4.20
2010,04,09,15,56,2.80
2010,04,09,15,57,2.80
2010,04,09,15,58,4.30
2010,04,09,15,59,4.00
2010,04,09,16,00,3.70
2010,04,09,16,01,1.90
2010,04,09,16,02,2.80
2010,04,09,16,03,1.00
2010,04,09,16,04,1.40
2010,04,09,16,05,5.20
2010,04,09,16,06,5.00
2010,04,09,16,07,8.30
2010,04,09,16,08,6.00
2010,04,09,16,09,3.50
2010,04,09,16,10,0.20
2010,04,09,16,11,1.00
2010,04,09,16,12,3.90
2010,04,09,16,13,1.20
2010,04,09,16,14,1.30
2010,04,09,16,15,5.00
2010,04,09,16,16,4.70
2010,04,09,16,17,3.90
2010,04,09,16,18,5.50
2010,04,09,16,19,1.20
2010,04,09,16,20,0.30
2010,04,09,16,21,3.10
2010,04,09,16,22,3.30
2010,04,09,16,23,0.90
2010,04,09,16,24,4.70
2010,04,09,16,25,1.40
2010,04,09,16,26,7.40
2010,04,09,16,27,8.80
2010,04,09,16,28,7.70
2010,04,09,16,29,3.50
2010,04,09,16,30,6.10
2010,04,09,16,31,3.80
2010,04,09,16,32,1.70
2010,04,09,16,33,4.50
2010,04,09,16,34,1.00
2010,04,09,16,35,3.00
2010,04,09,16,36,4.00
2010,04,09,16,37,0.40
2010,04,09,16,38,6.10
2010,04,09,16,39,8.60
2010,04,09,16,40,4.60
2010,04,09,16,41,9.90
2010,04,09,16,42,6.20
2010,04,09,16,43,5.20
2010,04,09,16,44,8.30
2010,04,09,16,45,7.60
2010,04,09,16,46,7.30
2010,04,09,16,47,5.80
2010,04,09,16,48,5.60
2010,04,09,16,49,5.40
2010,04,09,16,50,4.40
2010,04,09,16,51,2.20
2010,04,09,16,52,1.40
2010,04,09,16,53,3.10
2010,04,09,16,54,2.60
2010,04,09,16,55,1.20
2010,04,09,16,56,2.20
2010,04,09,16,57,2.80
2010,04,09,16,58,4.10
2010,04,09,16,59,6.30
2010,04,09,17,00,1.10
2010,04,09,17,01,5.30
2010,04,09,17,02,2.80
2010,04,09,17,03,5.70
2010,04,09,17,04,4.20
2010,04,09,17,05,5.20
2010,04,09,17,06,4.00
2010,04,09,17,07,4.10
2010,04,09,17,08,4.10
2010,04,09,17,09,3.50
2010,04,09,17,10,4.30
2010,04,09,17,11,2.50
2010,04,09,17,12,2.00
2010,04,09,17,13,6.90
2010,04,09,17,14,5.20
2010,04,09,17,15,3.90
2010,04,09,17,16,3.60
2010,04,09,17,17,3.90
2010,04,09,17,18,2.30
2010,04,09,17,19,4.90
2010,04,09,17,20,5.20
2010,04,09,17,21,1.70
2010,04,09,17,22,1.20
2010,04,09,17,23,2.20
2010,04,09,17,24,5.00
2010,04,09,17,25,3.40
2010,04,09,17,26,4.30
2010,04,09,17,27,4.30
2010,04,09,17,28,4.30
2010,04,09,17,29,3.60
2010,04,09,17,30,2.00
2010,04,09,17,31,7.10
2010,04,09,17,32,7.60
2010,04,09,17,33,3.50
2010,04,09,17,34,2.30
2010,04,09,17,35,2.70
2010,04,09,17,36,3.80
2010,04,09,17,37,4.20
2010,04,09,17,38,5.70
2010,04,09,17,39,6.40
2010,04,09,17,40,5.10
2010,04,09,17,41,3.20
2010,04,09,17,42,0.50
2010,04,09,17,43,0.60
2010,04,09,17,44,5.10
2010,04,09,17,45,6.40
2010,04,09,17,46,4.70
2010,04,09,17,47,4.80
2010,04,09,17,48,3.70
2010,04,09,17,49,3.30
2010,04,09,17,50,4.00
2010,04,09,17,51,3.10
2010,04,09,17,52,1.40
2010,04,09,17,53,5.60
2010,04,09,17,54,8.10
2010,04,09,17,55,2.60
2010,04,09,17,56,2.50
2010,04,09,17,57,5.70
2010,04,09,17,58,5.10
2010,04,09,17,59,2.90
2010,04,09,18,00,4.70
2010,04,09,18,01,4.50
2010,04,09,18,02,6.30
2010,04,09,18,03,8.90
2010,04,09,18,04,8.50
2010,04,09,18,05,4.30
2010,04,09,18,06,3.70
2010,04,09,18,07,3.30
2010,04,09,18,08,3.10